sat.trackr.live / text

‹ back to catalog

STARLINK-33967

NORAD 64027 · 2025-102F

PAYLOAD ACTIVE UNKNOWN

§ Identity

Operator
Country
US
Launch date
2025-05-16
Launch site
AFWTR
Launch vehicle
Mass (kg)
RCS (m²)

Purposes: comms

External: N2YO · Heavens-Above · Gunter

§ Orbital elements

Epoch: 2026-09-20T22:12:34.476192Z

Period
94.14 min
Inclination
70.0009°
Eccentricity
0.0003478
Mean motion
15.29584430 rev/d
Perigee alt
474.7 km
Apogee alt
479.4 km
Semi-major
6,855.2 km
B*
2.5609e-4
RAAN
339.9204°
Arg perigee
268.8678°
Mean anomaly
91.2099°
Rev number
7,519

§ Raw data

STARLINK-339671 64027U 25102F   26263.92539903  .00007242  00000+0  25609-3 0  99972 64027  70.0009 339.9204 0003478 268.8678  91.2099 15.29584430 75197

JSON: /api/v1/satellites/64027 · /tle

For live sub-satellite position, see the globe view (requires WebGL).

§ Visibility from observer

Set your observer location to see the next 7 days of passes ≥ 10°. The values pass through the URL so the page stays shareable.

No JS? Fill the form by hand. The geolocation button needs JavaScript.